CDT,Max TemperatureF,Mean TemperatureF,Min TemperatureF,Max Dew PointF,MeanDew PointF,Min DewpointF,Max Humidity, Mean Humidity, Min Humidity, Max Sea Level PressureIn, Mean Sea Level PressureIn, Min Sea Level PressureIn, Max VisibilityMiles, Mean VisibilityMiles, Min VisibilityMiles, Max Wind SpeedMPH, Mean Wind SpeedMPH, Max Gust SpeedMPH,PrecipitationIn, CloudCover, Events, WindDirDegrees
2012-10-1,77,68,58,53,51,47,75,58,41,29.89,29.84,29.80,10,10,10,16,8,23,0.00,0,,343
2012-10-2,74,62,49,49,46,43,83,58,33,29.96,29.92,29.88,10,10,10,13,5,20,0.00,0,,338
2012-10-3,77,61,44,53,48,43,100,67,33,29.99,29.94,29.89,10,10,10,17,6,22,0.00,0,,178
2012-10-4,66,58,49,55,48,41,93,75,56,30.24,30.14,29.97,10,10,8,17,9,21,0.05,5,Rain-Thunderstorm,13
2012-10-5,54,46,38,45,40,31,86,64,41,30.32,30.24,30.21,10,10,9,21,9,30,0.01,6,Rain,28
2012-10-6,49,43,37,37,31,25,92,67,42,30.38,30.32,30.26,10,10,10,16,6,21,0.00,7,,359
2012-10-7,56,44,32,32,29,26,82,57,32,30.35,30.28,30.19,10,10,10,12,6,20,0.00,1,,284
2012-10-8,63,47,31,38,33,29,92,63,34,30.20,30.11,30.00,10,10,10,21,10,29,0.00,0,,183
2012-10-9,65,55,44,52,44,37,83,69,55,30.14,29.97,29.90,10,10,10,22,10,26,0.00,4,,191
2012-10-10,65,50,35,38,34,29,92,61,29,30.30,30.21,30.15,10,10,10,12,3,26,0.00,0,,77
2012-10-11,73,61,48,63,52,38,87,74,61,30.14,30.08,30.00,10,10,8,21,8,25,0.16,8,,151
2012-10-12,66,60,54,64,57,48,100,89,77,30.24,30.14,30.08,10,6,1,20,9,26,1.10,8,Rain-Thunderstorm,72
2012-10-13,73,68,62,68,64,61,100,91,81,30.04,29.84,29.64,10,6,1,26,14,78,0.74,7,Rain-Thunderstorm,170
2012-10-14,72,61,50,63,51,43,100,68,35,30.04,29.84,29.60,10,10,9,23,11,30,0.00,1,,270
2012-10-15,82,65,47,53,48,44,93,61,28,30.02,29.93,29.83,10,8,2,14,6,17,0.00,0,,217
2012-10-16,80,70,59,52,50,49,72,54,35,29.81,29.68,29.57,10,10,10,26,15,33,0.00,0,,188
2012-10-17,69,60,50,47,37,34,52,40,28,29.75,29.58,29.45,10,10,10,21,12,30,0.00,0,,305
2012-10-18,64,54,44,34,29,24,62,42,22,29.81,29.77,29.73,10,10,10,33,16,45,0.00,3,,287
2012-10-19,61,51,40,40,36,32,89,66,42,29.86,29.81,29.74,10,10,10,24,11,33,0.00,3,,304
2012-10-20,77,58,38,52,44,36,92,63,33,29.85,29.78,29.70,10,10,10,15,8,18,0.00,0,,162
2012-10-21,80,68,56,68,61,51,86,77,67,29.81,29.76,29.71,10,10,9,22,13,29,0.00,4,,150
2012-10-22,80,73,65,67,66,63,93,78,62,29.85,29.80,29.73,10,10,10,26,16,33,T,3,,184
2012-10-23,78,71,64,66,65,63,93,80,67,29.86,29.80,29.73,10,10,10,27,18,38,0.00,7,,182
2012-10-24,81,76,69,66,62,58,73,66,58,29.86,29.81,29.73,10,10,10,27,18,36,0.00,1,,172
2012-10-25,70,54,38,63,46,32,93,79,65,30.27,29.95,29.64,10,10,7,26,17,38,0.05,5,Rain,332
2012-10-26,48,40,31,30,28,26,82,64,45,30.47,30.40,30.28,10,10,10,21,11,29,0.00,3,,8
2012-10-27,50,39,28,31,27,24,85,64,42,30.43,30.35,30.26,10,10,10,12,5,17,0.00,0,,22
2012-10-28,55,40,25,31,28,24,92,64,35,30.37,30.30,30.25,10,10,10,9,3,23,0.00,2,,107
2012-10-29,61,48,35,33,31,30,76,54,32,30.32,30.22,30.10,10,10,10,15,8,18,0.00,2,,138
2012-10-30,61,50,38,40,35,31,79,63,46,30.09,30.01,29.94,10,10,10,12,7,29,T,2,,102
2012-10-31,64,49,33,37,33,28,85,60,34,30.10,30.04,30.00,10,10,10,7,2,21,0.00,0,,15